Date,TemperatureHighF,TemperatureAvgF,TemperatureLowF,DewpointHighF,DewpointAvgF,DewpointLowF,HumidityHigh,HumidityAvg,HumidityLow,PressureMaxIn,PressureMinIn,WindSpeedMaxMPH,WindSpeedAvgMPH,GustSpeedMaxMPH,PrecipitationSumIn
2013-1-1,16.2,6.9,-1.4,6.9,-1.3,-7.4,80,69,55,30.30,30.18,5,0,7,0.00
2013-1-2,23.9,16.9,8.3,16.4,8.4,0.8,80,70,50,30.20,30.07,3,0,8,0.00
2013-1-3,27.0,20.2,9.0,20.4,14.8,2.9,85,79,73,30.27,30.07,10,2,13,0.00
2013-1-4,28.1,18.6,8.3,18.9,12.0,2.3,83,76,62,30.24,30.11,6,2,18,0.00
2013-1-5,33.7,24.7,10.9,31.1,20.4,6.5,90,83,76,30.23,29.87,7,1,14,0.00
2013-1-6,33.4,23.0,12.9,29.9,16.8,7.9,87,77,70,30.31,29.87,7,2,13,0.00
2013-1-7,34.3,24.5,11.6,24.8,17.6,6.6,84,75,60,30.30,30.04,6,1,21,0.00
2013-1-8,37.5,30.7,19.4,30.3,24.2,-99.9,89,78,65,30.11,29.93,6,1,17,0.00
2013-1-9,40.2,32.1,22.1,29.7,24.3,16.6,83,73,56,30.47,29.92,9,4,20,0.00
2013-1-10,38.6,28.8,18.1,32.6,23.9,14.1,92,82,64,30.50,29.85,3,0,10,0.20
2013-1-11,44.1,38.8,33.7,42.5,37.0,31.6,94,93,92,29.85,29.58,5,1,10,0.00
2013-1-12,43.6,32.4,21.3,41.7,26.8,16.2,94,80,67,30.02,29.58,9,3,17,0.02
2013-1-13,21.4,17.2,10.7,16.2,8.4,-99.9,82,69,59,30.25,29.93,6,2,14,0.02
2013-1-14,23.9,13.9,6.0,9.3,4.7,-0.2,78,67,51,30.49,30.25,2,0,7,0.00
2013-1-15,29.3,18.4,9.7,14.4,9.4,3.8,82,68,50,30.44,30.09,4,0,7,0.00
2013-1-16,33.4,26.0,16.7,29.2,17.5,-99.9,85,71,61,30.09,29.79,7,2,17,0.00
2013-1-17,28.7,20.4,13.8,19.5,7.8,3.8,74,58,40,30.42,30.07,6,1,11,0.00
2013-1-18,40.5,29.2,13.3,30.9,21.7,7.0,79,73,64,30.43,29.82,7,2,24,0.00
2013-1-19,43.2,36.1,14.9,32.2,26.7,1.6,80,69,40,30.00,29.65,14,5,28,0.00
2013-1-20,16.4,11.5,6.9,1.9,-1.4,-3.4,63,56,45,30.35,30.00,9,3,17,0.00
2013-1-21,10.0,4.1,-1.0,-0.4,-7.9,-12.1,67,57,46,30.33,30.17,7,3,20,0.00
2013-1-22,9.0,2.6,-4.6,-4.5,-8.6,-12.8,67,59,49,30.42,30.32,3,1,10,0.00
2013-1-23,18.3,12.0,4.5,11.7,2.6,-7.8,77,65,56,30.47,30.12,7,2,20,0.00
2013-1-24,16.9,7.7,0.3,8.0,-3.3,-9.5,70,60,50,30.70,30.36,4,0,7,0.00
2013-1-25,27.2,19.5,13.3,16.1,10.4,3.9,81,68,55,30.36,29.94,7,2,14,0.01
2013-1-26,24.5,17.0,6.1,11.8,5.0,-99.9,76,61,45,30.42,30.23,3,0,7,0.00
2013-1-27,33.5,27.9,21.1,31.4,21.2,10.7,92,76,62,30.34,29.83,5,1,14,0.05
2013-1-28,42.2,36.4,33.5,36.9,32.7,29.2,93,87,72,29.92,29.75,2,0,7,0.09
2013-1-29,53.2,39.6,34.1,51.8,30.6,-99.9,95,87,92,29.77,29.46,6,-60,10,1.03
2013-1-30,31.5,24.3,14.8,30.0,21.7,10.1,94,90,82,29.65,29.32,0,0,0,0.46
2013-1-31,14.6,9.5,-1.0,10.1,2.6,-99.9,82,74,65,30.21,29.65,0,0,0,0.00
2013-2-1,5.8,-0.3,-8.6,0.7,-8.0,-99.9,79,70,61,30.40,30.16,0,0,0,0.04
2013-2-2,15.9,8.6,1.7,5.8,1.6,-5.4,81,73,60,30.16,30.04,0,0,0,0.02
2013-2-3,24.1,14.0,5.8,11.3,7.0,0.1,84,74,55,30.06,29.97,7,1,14,0.02
2013-2-4,20.0,14.2,5.2,11.9,7.3,-1.6,84,74,58,30.02,29.94,3,0,6,0.09
2013-2-5,29.8,19.5,4.8,23.8,13.7,-1.7,86,78,65,30.12,29.81,7,1,11,0.05
2013-2-6,34.0,21.1,2.6,29.7,14.5,-2.7,86,76,60,30.23,30.05,3,0,7,0.00
2013-2-7,35.2,31.6,21.8,32.6,28.5,18.9,91,88,84,30.09,29.90,1,0,6,0.49
2013-2-8,27.9,20.2,7.0,19.0,14.3,1.9,89,78,64,30.42,30.09,0,0,0,0.00
2013-2-9,29.7,22.7,6.3,24.0,18.6,1.2,89,84,77,30.41,30.07,0,0,0,0.00
2013-2-10,40.2,32.9,19.9,38.6,30.5,15.6,94,91,83,30.07,29.39,12,2,21,0.49
2013-2-11,36.2,29.4,24.1,32.7,23.4,17.6,87,78,72,30.02,29.40,14,7,25,0.00
2013-2-12,32.4,24.0,20.5,21.3,16.6,14.1,85,73,61,30.10,29.88,5,2,12,0.00
2013-2-13,39.8,28.7,16.2,29.9,22.8,13.0,90,79,60,29.88,29.66,4,0,13,0.00
2013-2-14,38.0,33.0,26.1,31.7,24.9,-99.9,87,74,54,30.00,29.56,10,3,22,0.00
2013-2-15,29.3,20.4,11.2,21.0,7.9,0.2,76,59,41,30.24,30.00,6,2,14,0.00
2013-2-16,20.8,11.4,3.9,5.2,-0.6,-5.3,72,59,42,30.23,30.17,4,1,8,0.00
2013-2-17,27.3,13.2,0.5,18.1,2.2,-6.7,79,62,45,30.24,29.92,3,0,16,0.00
2013-2-18,47.3,35.0,22.2,35.5,27.8,17.4,89,75,60,29.90,29.47,7,2,19,0.20
2013-2-19,22.1,13.1,7.2,17.2,4.9,-3.8,81,70,58,30.24,29.57,8,4,18,0.00
2013-2-20,26.3,13.9,3.7,10.5,2.9,-4.9,70,62,48,30.41,30.24,4,1,13,0.00
2013-2-21,25.3,18.4,10.0,21.1,12.2,3.3,88,76,69,30.45,30.01,6,1,13,0.01
2013-2-22,32.1,26.8,23.6,25.5,22.5,20.3,88,84,74,30.01,29.79,3,1,12,0.14
2013-2-23,32.4,25.3,21.6,21.3,17.7,14.3,83,73,58,29.96,29.86,5,2,13,0.00
2013-2-24,39.6,24.9,12.6,22.2,15.2,7.3,84,68,47,30.15,29.95,1,0,6,0.00
2013-2-25,41.9,27.9,15.4,25.9,19.5,10.5,86,71,52,30.18,30.01,2,0,6,0.00
2013-2-26,34.3,30.8,28.5,27.2,25.0,22.4,90,79,67,30.01,29.64,7,1,18,0.17
2013-2-27,34.0,30.4,27.3,29.8,27.5,24.8,91,89,84,29.79,29.63,4,2,11,0.22
2013-2-28,36.2,31.0,23.8,28.6,25.5,17.0,90,80,67,30.13,29.79,8,2,11,0.00
2013-3-1,27.5,21.7,9.0,19.1,14.5,3.0,83,74,61,30.28,30.13,4,1,11,0.00
2013-3-2,31.3,17.5,7.9,13.1,6.3,-99.9,81,64,41,30.29,30.19,4,1,10,0.00
2013-3-3,32.4,16.6,3.5,11.8,4.9,-2.4,81,62,37,30.20,30.11,1,0,5,0.00
2013-3-4,33.8,23.3,11.4,21.6,15.0,4.1,77,71,57,30.14,30.02,4,1,10,0.00
2013-3-5,32.4,28.3,24.4,27.5,23.7,20.5,87,83,77,30.11,29.88,1,0,6,0.40
2013-3-6,35.0,28.5,23.8,25.9,22.2,19.1,85,77,66,30.33,30.11,6,1,11,0.00
2013-3-7,38.2,24.1,9.5,21.5,14.4,3.7,85,67,48,30.44,30.31,5,0,5,0.00
2013-3-8,41.1,25.7,10.5,27.9,17.9,5.8,89,73,53,30.48,30.25,5,0,9,0.00
2013-3-9,40.1,34.8,28.5,33.9,29.2,21.9,91,80,66,30.25,29.77,6,2,14,0.24
2013-3-10,39.6,37.2,34.3,37.7,35.3,32.5,93,93,91,29.78,29.61,6,0,18,0.63
2013-3-11,34.3,32.1,29.8,32.5,30.0,25.6,93,92,84,29.77,29.56,6,1,12,0.00
2013-3-12,35.8,28.2,22.7,26.9,22.3,17.7,86,79,63,30.03,29.77,7,3,14,0.03
2013-3-13,35.9,25.6,17.5,18.0,11.2,6.0,79,57,29,30.34,30.03,8,3,16,0.00
2013-3-14,36.6,25.8,14.8,26.3,17.9,8.1,85,72,61,30.33,30.07,4,0,11,0.01
2013-3-15,36.2,30.9,25.7,31.5,27.3,-99.9,90,88,81,30.07,29.79,3,0,8,0.14
2013-3-16,32.4,27.7,22.2,25.8,20.5,16.3,86,75,61,30.16,29.79,5,1,10,0.00
2013-3-17,33.7,25.2,17.0,18.8,14.1,6.4,75,63,52,30.26,30.00,3,1,11,0.00
2013-3-18,34.6,25.9,16.9,29.8,20.7,8.7,87,81,67,30.00,29.59,9,2,18,0.18
2013-3-19,33.1,19.7,9.9,14.5,8.2,3.0,76,61,43,30.09,29.76,9,6,18,0.00
2013-3-20,25.8,16.0,7.2,8.1,2.5,-3.4,66,55,42,30.13,30.05,7,3,16,0.00
2013-3-21,34.0,19.4,6.9,13.5,5.4,-2.2,69,55,38,30.10,30.03,4,1,10,0.00
2013-3-22,38.3,24.1,10.4,18.4,10.7,3.5,76,58,38,30.09,30.03,2,0,6,0.00
2013-3-23,39.6,29.0,17.8,19.4,16.1,11.2,80,60,38,30.15,30.06,1,0,6,0.00
2013-3-24,32.7,29.6,27.9,26.7,23.3,18.9,85,77,67,30.07,29.79,5,1,12,0.00
2013-3-25,36.8,30.7,25.4,25.2,20.6,-99.9,75,67,55,30.10,29.83,4,2,13,0.00
2013-3-26,43.9,35.2,29.3,26.6,22.7,20.6,71,61,46,30.26,30.09,5,1,10,0.00
2013-3-27,43.9,35.4,26.7,25.7,21.0,15.4,72,57,35,30.32,30.25,2,0,7,0.00
2013-3-28,48.2,35.6,23.3,23.6,19.3,15.6,75,54,29,30.36,30.29,1,0,6,0.00
2013-3-29,52.0,38.7,25.6,27.7,21.6,16.5,84,54,27,30.33,30.21,2,0,6,0.00
2013-3-30,52.5,42.2,33.1,39.1,31.1,22.1,86,65,55,30.21,29.80,5,1,11,0.00
2013-3-31,52.0,40.0,31.3,38.6,31.4,17.3,89,73,51,29.91,29.71,9,2,16,0.00
2013-4-1,40.3,31.5,24.8,19.0,12.9,-99.9,59,47,33,30.21,29.91,7,3,19,0.00
2013-4-2,45.1,32.3,22.7,18.0,13.7,9.6,70,49,26,30.33,30.20,8,2,13,0.00
2013-4-3,46.5,34.0,20.5,19.3,14.3,8.7,75,47,23,30.45,30.27,3,0,8,0.00
2013-4-4,59.8,42.0,29.1,34.8,25.0,17.9,64,52,31,30.27,29.95,8,2,16,0.00
2013-4-5,51.3,40.5,27.2,28.0,23.1,18.6,77,52,30,30.23,30.03,3,0,10,0.00
2013-4-6,62.1,46.7,33.4,47.4,33.0,18.4,83,60,41,30.10,29.54,9,2,17,0.04
2013-4-7,58.9,46.9,36.5,45.2,35.3,31.2,83,66,41,29.93,29.57,7,2,17,0.00
2013-4-8,62.6,46.6,36.6,52.2,40.9,31.0,93,81,63,29.97,29.60,5,0,10,0.65
2013-4-9,43.9,39.7,36.2,40.9,37.5,34.4,93,92,89,29.99,29.85,5,0,21,1.39
2013-4-10,37.0,35.0,31.8,35.2,33.2,30.0,93,93,92,30.05,29.88,5,1,11,1.13
2013-4-11,38.8,36.6,34.9,36.9,34.8,32.8,93,93,92,29.89,29.57,6,1,14,0.25
2013-4-12,40.8,35.8,33.7,34.7,31.2,-99.9,93,86,74,29.81,29.51,5,2,12,0.05
2013-4-13,40.3,34.9,30.3,28.0,26.2,22.6,83,71,57,29.99,29.80,7,3,16,0.00
2013-4-14,52.2,39.7,31.0,46.0,33.9,25.6,91,80,63,30.00,29.52,6,2,14,0.16
2013-4-15,59.3,48.9,40.1,49.9,41.6,35.3,93,78,42,29.94,29.56,10,3,20,0.56
2013-4-16,57.3,44.8,31.9,36.4,32.1,27.3,85,63,37,30.26,29.95,7,1,12,0.01
2013-4-17,43.3,40.5,37.8,40.0,36.3,30.7,92,85,69,30.28,29.83,6,1,12,0.99
2013-4-18,58.7,46.1,36.0,57.2,43.8,30.7,95,92,80,29.87,29.31,13,3,28,0.60
2013-4-19,39.9,35.3,30.4,31.7,26.4,-99.9,83,71,56,29.93,29.37,10,6,22,0.02
2013-4-20,47.9,36.0,24.5,22.6,18.4,12.2,78,52,26,30.38,29.93,6,1,16,0.01
2013-4-21,53.9,42.1,31.2,34.5,27.7,19.9,74,58,38,30.48,30.24,8,2,19,0.00
2013-4-22,68.3,53.9,41.6,41.5,36.2,32.1,70,53,32,30.25,29.96,4,2,12,0.00
2013-4-23,55.1,43.6,37.6,45.8,35.8,26.9,87,74,56,29.99,29.87,8,2,14,0.10
2013-4-24,57.0,44.1,32.8,28.9,25.4,19.8,73,50,26,30.04,29.97,6,2,13,0.00
2013-4-25,53.8,43.9,36.9,34.5,30.4,25.5,81,61,36,30.28,29.96,9,3,21,0.00
2013-4-26,70.3,53.9,36.2,44.6,36.3,23.9,69,52,35,30.27,30.11,12,3,21,0.00
2013-4-27,64.8,55.5,44.1,48.8,43.6,39.3,89,66,46,30.20,29.98,3,0,7,0.00
2013-4-28,73.7,56.5,40.2,47.8,42.7,36.1,90,64,34,29.98,29.76,2,0,7,0.00
2013-4-29,70.8,60.7,51.1,55.8,51.2,46.0,86,72,52,29.83,29.66,9,2,16,0.04
2013-4-30,87.0,72.1,59.6,59.8,51.9,-99.9,86,55,23,29.83,29.63,10,3,20,0.00
2013-5-1,85.5,68.9,52.2,57.2,50.0,41.2,77,53,29,30.16,29.83,5,1,14,0.00
2013-5-2,57.3,47.6,38.2,43.0,37.5,33.9,85,69,53,30.26,30.15,6,2,13,0.04
2013-5-3,47.0,41.0,35.6,45.1,38.6,33.0,93,91,85,30.20,29.98,3,0,7,0.58
2013-5-4,71.5,55.9,46.0,58.2,48.7,44.1,93,79,43,30.02,29.94,3,0,11,0.12
2013-5-5,73.9,59.6,45.4,51.2,45.0,40.6,89,62,32,30.03,29.96,2,0,6,0.00
2013-5-6,75.6,60.8,44.6,48.5,42.9,36.4,86,56,26,30.05,29.96,2,0,7,0.00
2013-5-7,79.6,66.1,53.6,47.9,41.6,33.8,74,45,21,30.02,29.94,2,0,6,0.00
2013-5-8,82.2,65.3,47.4,52.8,45.4,40.2,88,53,23,30.00,29.91,1,0,6,0.00
2013-5-9,62.0,58.2,48.2,58.1,52.7,46.0,92,82,62,29.92,29.81,2,0,7,1.23
2013-5-10,51.7,46.0,41.9,46.0,42.4,39.6,92,87,79,29.98,29.84,4,1,10,0.33
2013-5-11,56.5,47.9,39.3,48.2,35.2,23.5,92,65,34,30.04,29.79,13,4,25,0.02
2013-5-12,57.6,45.9,35.6,30.6,25.5,19.7,64,47,26,30.12,30.04,7,3,14,0.00
2013-5-13,67.1,51.2,31.3,38.0,29.9,-99.9,87,50,22,30.16,29.88,3,0,7,0.00
2013-5-14,91.6,72.0,52.6,58.4,48.2,36.4,66,45,22,29.87,29.51,4,1,14,0.00
2013-5-15,81.2,70.5,58.0,57.4,46.0,38.5,62,43,23,29.82,29.51,6,1,14,0.00
2013-5-16,87.6,68.6,52.3,51.6,44.8,37.3,83,46,21,29.92,29.80,2,0,8,0.00
2013-5-17,66.9,58.8,51.0,55.8,46.9,36.6,89,66,48,30.04,29.91,7,0,8,0.29
2013-5-18,80.3,66.1,51.7,63.2,55.4,45.7,84,70,49,30.02,29.87,3,0,10,0.00
2013-5-19,85.9,71.4,61.2,64.3,60.1,55.3,88,69,43,29.89,29.61,8,1,29,0.05
2013-5-20,83.4,72.0,61.0,63.5,58.9,-99.9,91,67,44,29.73,29.54,5,1,12,0.53
2013-5-21,78.6,69.4,60.1,62.0,56.7,-99.9,86,68,47,29.64,29.55,8,1,11,0.00
2013-5-22,72.3,63.2,56.7,61.2,56.5,52.7,91,80,61,29.73,29.58,2,0,7,0.12
2013-5-23,64.8,54.3,45.2,54.0,45.5,37.4,91,74,45,30.29,29.73,4,0,13,0.14
2013-5-24,66.6,51.6,36.0,43.0,37.2,28.4,88,61,27,30.43,30.27,5,0,6,0.00
2013-5-25,58.0,51.3,44.3,41.5,39.2,33.9,85,64,44,30.37,30.27,2,0,9,0.05
2013-5-26,62.7,51.6,42.8,51.9,43.1,35.8,80,73,48,30.28,30.11,2,0,7,0.02
2013-5-27,55.1,51.6,51.3,52.5,44.5,-99.9,92,84,67,30.11,29.84,5,-22,8,0.06
2013-5-28,70.1,61.3,51.4,67.1,58.5,49.2,94,91,86,29.84,29.66,2,0,7,0.81
2013-5-29,82.6,71.0,63.2,67.5,62.0,-99.9,93,76,58,29.86,29.72,7,-7,13,0.03
2013-5-30,84.1,72.6,62.3,68.1,64.0,59.0,91,76,52,29.82,29.63,14,2,22,0.31
2013-5-31,75.6,67.6,62.1,65.2,61.5,59.1,91,82,62,29.74,29.62,6,1,14,0.03
2013-6-1,78.8,67.9,62.6,65.0,56.9,-99.9,92,73,49,29.67,29.56,8,-22,11,0.00
2013-6-2,62.6,55.9,47.7,55.8,45.2,40.7,84,68,49,30.01,29.66,5,1,16,0.00
2013-6-3,73.7,57.8,42.3,48.4,42.4,-99.9,91,62,28,30.08,29.98,1,0,7,0.00
2013-6-4,70.9,61.0,52.8,51.5,46.8,42.1,85,61,40,30.13,30.03,3,0,8,0.01
2013-6-5,68.4,57.5,49.9,59.0,52.0,45.9,91,82,63,30.09,29.91,5,0,7,0.16
2013-6-6,57.5,55.3,52.8,54.3,51.9,49.3,91,88,82,29.93,29.87,0,0,2,0.07
2013-6-7,72.7,59.8,53.1,56.6,50.5,47.6,89,73,45,29.97,29.88,1,0,5,0.07
2013-6-8,73.7,64.3,49.5,52.0,47.6,43.1,85,57,36,29.96,29.89,2,0,5,0.00
2013-6-9,77.6,66.7,56.5,62.1,55.1,46.6,89,68,47,29.96,29.75,6,1,16,0.19
2013-6-10,82.2,69.2,58.9,64.9,60.7,56.1,93,76,50,29.82,29.72,2,0,9,0.00
2013-6-11,84.5,71.8,58.9,64.9,60.8,55.0,91,70,45,29.87,29.74,2,0,6,0.00
2013-6-12,83.2,71.0,63.7,69.9,64.5,60.8,91,80,62,29.86,29.58,5,0,10,0.63
2013-6-13,79.8,68.4,56.9,60.8,56.5,52.9,92,69,42,30.01,29.68,4,1,12,0.00
2013-6-14,80.9,66.6,52.9,60.2,54.4,48.8,89,67,41,30.12,29.95,2,0,7,0.00
2013-6-15,83.2,69.8,58.3,67.6,61.1,50.2,91,75,54,30.01,29.77,3,0,8,0.09
2013-6-16,87.8,75.1,64.3,67.4,57.4,47.4,89,59,27,29.87,29.79,4,0,13,0.00
2013-6-17,89.0,73.3,62.3,61.9,54.7,46.1,77,54,29,29.90,29.81,11,0,11,0.01
2013-6-18,74.9,63.9,54.5,58.8,52.4,46.9,84,68,49,30.06,29.90,2,0,7,0.00
2013-6-19,81.4,65.5,48.6,56.3,49.3,44.3,88,59,31,30.12,30.02,1,0,8,0.00
2013-6-20,88.0,72.8,55.7,62.7,54.3,44.9,75,55,29,30.09,29.98,3,0,10,0.00
2013-6-21,78.1,70.6,66.0,67.1,63.2,59.4,91,78,64,30.06,29.78,9,1,16,1.30
2013-6-22,81.2,70.8,65.6,72.3,66.1,63.1,94,86,68,30.08,29.86,4,0,12,1.76
2013-6-23,85.7,72.7,63.1,72.3,66.0,60.7,93,80,63,30.01,29.81,3,0,10,0.56
2013-6-24,82.0,72.3,68.4,68.6,65.6,63.0,89,80,61,29.97,29.78,3,0,11,0.00
2013-6-25,80.9,71.2,64.5,73.2,67.3,61.8,94,88,73,29.89,29.74,3,0,8,1.85
2013-6-26,84.3,74.3,66.3,70.4,67.9,63.6,93,82,58,29.75,29.65,4,0,11,1.35
2013-6-27,89.0,77.6,68.9,70.8,65.4,58.4,91,69,44,29.75,29.64,5,0,16,0.00
2013-6-28,78.6,69.0,63.5,66.2,60.1,56.7,91,74,50,29.68,29.59,5,1,16,0.57
2013-6-29,71.5,66.1,63.5,65.5,61.3,57.5,93,85,67,29.79,29.58,3,0,7,0.36
2013-6-30,80.5,68.1,58.4,61.0,53.7,48.8,80,62,41,30.01,29.79,7,0,10,0.00
2013-7-1,81.1,67.5,55.0,57.2,52.1,47.6,84,61,34,30.08,30.00,2,0,10,0.00
2013-7-2,77.0,65.1,54.5,56.3,51.0,-99.9,89,64,33,30.09,30.03,1,0,7,0.00
2013-7-3,71.6,63.0,53.5,60.2,55.7,48.8,87,78,65,30.05,29.99,1,0,6,0.00
2013-7-4,84.0,71.1,58.1,62.0,57.5,-99.9,92,67,37,30.04,29.96,1,0,7,0.00
2013-7-5,85.3,74.2,62.4,66.0,61.4,58.0,87,67,45,30.01,29.94,2,0,10,0.00
2013-7-6,87.4,74.9,63.9,67.0,62.6,58.4,85,67,46,29.99,29.90,2,0,6,0.00
2013-7-7,90.5,78.1,66.6,70.6,66.5,-99.9,90,71,47,29.92,29.85,2,0,8,0.00
2013-7-8,90.1,78.8,70.8,74.2,70.6,67.4,91,77,57,29.92,29.84,3,0,8,0.37
2013-7-9,85.7,76.8,70.6,75.1,71.1,67.2,92,83,63,29.93,29.77,4,0,13,0.04
2013-7-10,82.0,74.5,64.0,71.6,61.9,54.4,89,67,39,29.98,29.80,5,1,17,0.00
2013-7-11,83.6,69.8,56.9,60.3,56.0,50.9,90,65,35,30.08,29.98,1,0,7,0.00
2013-7-12,85.5,70.7,56.5,58.4,53.9,47.9,86,59,29,30.13,30.03,1,0,10,0.00
2013-7-13,85.5,72.6,59.5,65.1,58.3,53.4,85,63,39,30.11,30.03,3,0,8,0.00
2013-7-14,88.0,75.6,62.7,69.5,63.9,57.8,88,69,47,30.16,30.09,3,0,7,0.00
2013-7-15,93.2,79.8,66.8,73.5,68.2,-99.9,89,71,47,30.22,30.14,1,0,6,0.00
2013-7-16,93.2,82.3,72.8,75.4,71.9,69.0,90,72,50,30.22,30.16,5,0,7,0.00
2013-7-17,95.1,84.0,74.4,74.0,71.9,70.1,89,69,45,30.24,30.09,6,0,10,0.00
2013-7-18,94.0,83.4,73.9,73.7,70.8,68.9,88,68,45,30.11,29.83,3,0,7,0.00
2013-7-19,91.4,80.8,69.4,74.5,69.5,64.0,83,69,51,29.83,29.68,10,1,11,0.09
2013-7-20,88.4,74.4,61.8,65.1,62.0,57.6,89,68,40,29.90,29.77,2,0,8,0.01
2013-7-21,83.0,67.4,60.5,68.5,61.2,56.0,91,81,57,29.92,29.83,6,0,11,1.27
2013-7-22,87.6,72.8,61.6,70.4,64.5,59.3,93,77,51,29.84,29.66,9,0,13,0.73
2013-7-23,79.0,68.9,58.6,62.3,56.1,-99.9,89,67,45,29.95,29.67,5,0,14,0.00
2013-7-24,76.3,64.0,52.8,59.1,51.9,48.7,91,68,42,30.05,29.95,3,0,7,0.00
2013-7-25,81.1,68.2,56.3,63.4,58.0,51.2,88,71,50,30.04,29.93,5,0,8,0.06
2013-7-26,74.9,67.2,60.4,71.4,60.9,53.6,92,81,52,29.93,29.80,3,0,11,0.59
2013-7-27,63.1,56.8,52.8,54.7,47.8,43.7,85,73,54,29.93,29.85,5,1,18,0.01
2013-7-28,68.6,58.1,52.2,53.2,47.1,-99.9,89,72,54,30.00,29.83,7,-11,12,0.01
2013-7-29,76.0,64.1,53.5,60.9,54.5,49.1,88,72,53,30.12,30.00,3,0,8,0.00
2013-7-30,70.9,64.0,55.7,62.7,58.5,52.5,92,83,69,30.13,30.03,2,0,7,0.05
2013-7-31,79.8,68.4,61.6,67.2,62.1,57.0,93,81,60,30.04,29.92,7,0,16,0.01
2013-8-1,80.3,68.7,58.9,61.2,56.4,51.3,91,68,39,29.97,29.86,4,1,12,0.00
2013-8-2,83.0,70.4,61.6,69.6,59.7,54.5,92,71,42,29.92,29.79,3,0,13,0.35
2013-8-3,79.8,67.4,54.7,58.5,52.7,49.1,89,62,36,30.10,29.92,5,0,11,0.00
2013-8-4,77.2,65.4,53.8,62.3,54.5,48.9,91,70,41,30.18,30.07,1,0,3,0.00
2013-8-5,72.1,64.5,57.8,62.8,58.6,53.5,90,82,67,30.07,29.81,3,0,8,0.05
2013-8-6,85.7,73.9,65.3,71.0,66.5,62.6,92,79,57,29.83,29.73,2,0,7,0.00
2013-8-7,84.0,74.2,63.2,69.7,64.7,57.9,91,74,48,29.92,29.69,5,1,11,0.00
2013-8-8,78.8,68.4,59.2,64.0,59.7,55.6,91,75,50,30.01,29.92,1,0,6,0.00
2013-8-9,79.9,68.5,58.4,64.7,57.5,-99.9,83,70,51,30.03,29.93,5,0,8,0.00
2013-8-10,77.2,66.1,55.1,58.0,53.7,-99.9,89,68,45,30.11,30.03,2,0,8,0.01
2013-8-11,75.4,65.3,55.3,65.1,59.3,51.5,90,81,67,30.10,29.98,3,0,6,0.03
2013-8-12,83.0,71.1,62.6,69.4,62.6,55.4,92,76,49,29.99,29.86,3,0,10,0.09
2013-8-13,73.7,64.0,53.5,56.5,50.1,46.2,85,62,40,30.12,29.94,3,0,13,0.00
2013-8-14,76.7,62.2,48.6,56.2,50.5,44.9,91,68,37,30.19,30.10,1,0,6,0.00
2013-8-15,80.5,66.8,57.8,58.1,52.9,49.0,80,63,36,30.13,30.05,2,0,6,0.00
2013-8-16,83.8,69.4,56.3,58.5,54.2,49.1,86,62,31,30.15,30.08,3,0,7,0.00
2013-8-17,83.2,67.0,53.2,60.2,51.9,-99.9,92,65,34,30.22,30.12,3,-11,7,0.00
2013-8-18,83.6,69.0,53.9,61.0,54.8,49.1,91,64,34,30.18,30.05,2,0,6,0.00
2013-8-19,84.0,70.0,56.9,64.9,58.6,51.8,90,69,46,30.07,29.97,4,0,10,0.00
2013-8-20,87.4,74.6,63.4,67.4,62.6,58.9,90,69,41,30.03,29.95,2,0,8,0.00
2013-8-21,89.7,77.8,68.1,69.5,66.2,62.7,85,69,47,29.97,29.87,4,1,11,0.00
2013-8-22,77.6,70.8,65.3,69.5,66.1,61.6,92,85,70,30.09,29.91,6,0,14,1.30
2013-8-23,84.0,70.2,57.0,62.8,57.8,-99.9,92,69,40,30.14,30.08,4,0,10,0.00
2013-8-24,85.1,71.6,56.2,68.1,60.9,51.4,90,70,52,30.20,30.10,3,0,12,0.00
2013-8-25,89.9,77.9,68.1,72.1,64.7,-99.9,84,67,46,30.15,30.04,4,1,12,0.00
2013-8-26,92.3,79.6,70.1,74.6,68.9,63.4,81,71,54,30.06,29.90,4,0,11,0.00
2013-8-27,94.3,81.8,74.0,74.7,69.1,-99.9,82,68,49,29.91,29.74,7,-11,17,0.00
2013-8-28,83.8,76.6,70.3,71.8,69.9,65.4,90,80,63,30.00,29.76,1,0,5,0.00
2013-8-29,88.2,75.4,63.2,73.5,65.2,59.9,92,73,47,30.03,29.90,3,0,8,0.00
2013-8-30,95.6,78.8,69.6,76.5,68.1,-99.9,91,75,50,29.90,29.69,3,-7,8,0.00
2013-8-31,79.4,70.7,64.5,69.0,64.2,60.4,89,80,64,29.83,29.75,3,0,8,0.00
2013-9-1,86.1,70.3,62.6,71.7,60.9,-99.9,93,77,48,29.80,29.67,13,-11,13,0.00
2013-9-2,71.1,64.0,54.7,59.3,55.6,49.6,90,75,58,29.98,29.79,3,0,11,0.00
2013-9-3,76.8,62.0,48.2,57.8,51.5,44.8,91,71,44,30.08,29.98,2,0,6,0.00
2013-9-4,85.9,68.2,53.5,64.2,57.6,49.5,91,72,41,30.08,30.00,1,0,7,0.00
2013-9-5,76.7,66.6,57.0,61.9,56.1,-99.9,90,72,54,30.22,30.06,3,-11,10,0.00
2013-9-6,87.4,69.9,53.9,65.1,57.7,47.4,83,67,45,30.18,29.92,3,0,9,0.00
2013-9-7,91.4,76.8,66.8,70.7,65.4,60.7,86,70,46,29.93,29.81,3,0,12,0.00
2013-9-8,73.3,68.4,63.9,68.9,62.9,58.6,87,83,76,30.01,29.90,1,0,7,0.00
2013-9-9,93.4,76.6,66.0,75.0,65.7,-99.9,92,74,52,29.92,29.71,6,-11,7,0.00
2013-9-10,95.9,79.8,73.3,68.3,56.3,-99.9,69,50,28,29.88,29.76,7,-34,12,0.00
2013-9-11,84.9,73.9,67.4,66.9,63.7,61.0,89,72,46,30.01,29.88,3,0,10,0.02
2013-9-12,77.9,66.4,59.0,63.1,50.9,-99.9,90,65,38,30.10,29.93,12,1,16,0.01
2013-9-13,69.9,56.8,46.7,47.8,39.8,-99.9,82,58,31,30.20,30.10,3,0,10,0.00
2013-9-14,72.5,57.5,41.9,50.1,43.2,37.7,91,62,35,30.15,29.95,3,0,7,0.00
2013-9-15,59.9,55.2,53.2,56.1,49.9,-99.9,93,85,55,30.20,29.94,3,-11,4,0.73
2013-9-16,68.3,55.1,43.2,52.7,45.2,37.8,91,71,45,30.38,30.20,3,0,5,0.00
2013-9-17,70.4,56.0,41.5,55.7,48.3,38.0,92,77,53,30.32,30.05,10,0,11,0.03
2013-9-18,73.7,66.5,58.6,66.0,60.3,53.2,88,81,69,30.05,29.83,3,1,11,0.02
2013-9-19,88.6,72.3,66.3,73.3,66.6,59.3,93,84,51,29.84,29.65,7,0,13,1.57
2013-9-20,72.0,64.7,55.7,64.6,58.7,51.3,94,82,59,29.80,29.67,8,0,10,0.00
2013-9-21,64.5,54.5,46.1,51.5,47.0,42.1,90,77,51,29.94,29.80,11,1,13,0.00
2013-9-22,67.4,52.6,41.1,50.4,44.2,38.1,92,75,46,30.07,29.94,1,0,5,0.00
2013-9-23,70.1,55.1,43.1,54.6,46.6,40.0,92,75,51,30.09,29.99,6,0,10,0.00
2013-9-24,73.5,57.4,45.7,55.8,48.3,43.2,92,74,42,30.02,29.91,3,0,7,0.00
2013-9-25,73.2,57.2,45.1,57.0,48.7,41.6,93,75,46,29.97,29.90,3,0,7,0.00
2013-9-26,78.6,59.3,44.8,61.2,49.4,41.3,94,73,37,30.04,29.95,7,0,7,0.00
2013-9-27,81.1,63.3,47.7,58.3,50.1,44.6,93,66,32,30.11,29.98,6,0,11,0.00
2013-9-28,79.6,64.4,54.4,64.6,54.5,47.0,90,72,51,29.98,29.79,5,1,16,0.24
2013-9-29,72.0,56.8,47.1,54.6,47.1,39.6,93,74,34,30.05,29.93,1,0,3,0.01
2013-9-30,73.7,58.3,44.1,49.0,44.6,40.3,91,64,33,29.97,29.79,5,1,11,0.00
2013-10-1,81.6,65.8,55.1,64.2,56.3,49.0,92,73,48,29.92,29.79,10,1,11,0.00
2013-10-2,78.3,61.6,47.6,52.9,46.2,37.7,92,62,26,30.08,29.92,5,0,5,0.00
2013-10-3,74.7,65.1,55.4,67.7,59.9,43.5,92,84,59,29.92,29.77,5,0,14,0.02
2013-10-4,67.8,65.0,62.4,66.0,62.8,60.0,94,92,91,29.95,29.81,2,0,8,0.19
2013-10-5,72.0,65.7,55.9,70.2,63.6,48.1,95,93,75,29.89,29.70,1,0,7,0.38
2013-10-6,58.6,50.2,43.3,47.5,41.5,37.8,89,73,48,29.75,29.66,2,-4,10,0.02
2013-10-7,68.4,53.0,43.6,49.5,43.4,40.0,92,73,38,30.06,29.71,7,0,11,0.00
2013-10-8,74.9,57.5,42.1,52.0,44.0,38.7,92,65,32,30.13,30.05,3,0,13,0.00
2013-10-9,73.3,58.9,48.3,49.8,45.0,39.7,88,63,32,30.18,30.07,6,0,7,0.00
2013-10-10,74.2,57.0,42.5,55.7,46.6,38.9,93,71,39,30.14,29.99,6,0,7,0.00
2013-10-11,73.7,60.2,47.9,59.6,52.1,44.2,93,76,54,30.01,29.86,7,1,14,0.00
2013-10-12,67.4,59.9,47.0,59.8,49.6,37.4,90,70,44,30.13,29.84,8,1,12,0.08
2013-10-13,62.0,47.3,38.8,42.4,33.8,-99.9,100,66,37,30.39,30.13,4,0,12,0.00
2013-10-14,61.2,46.6,34.4,45.8,35.2,-99.9,93,71,49,30.42,30.08,6,-22,8,0.00
2013-10-15,60.5,52.3,47.0,58.1,47.4,41.8,94,84,69,30.08,29.69,6,1,11,0.24
2013-10-16,52.9,49.3,46.7,48.9,45.4,42.5,92,86,77,29.91,29.75,3,0,12,0.06
2013-10-17,53.5,46.6,40.3,45.8,42.0,36.1,93,85,60,29.90,29.79,5,0,6,0.13
2013-10-18,47.6,43.0,39.2,42.2,37.2,34.6,91,80,66,29.93,29.78,5,0,8,0.00
2013-10-19,51.9,41.6,33.5,39.0,34.9,30.0,89,78,50,29.90,29.71,4,0,14,0.01
2013-10-20,50.1,42.3,31.2,45.7,37.7,28.3,92,84,65,29.84,29.68,5,0,13,0.06
2013-10-21,45.1,38.6,30.0,41.5,29.0,21.7,87,69,51,29.96,29.73,10,1,14,0.00
2013-10-22,45.1,34.9,26.0,30.5,25.7,21.0,83,70,49,29.98,29.90,6,0,6,0.00
2013-10-23,44.1,34.5,26.7,30.4,26.1,22.8,89,72,47,30.02,29.94,2,0,11,0.01
2013-10-24,41.8,35.3,30.3,27.9,24.5,21.2,78,65,46,30.30,30.01,6,1,13,0.00
2013-10-25,51.0,39.9,27.2,31.9,25.2,21.8,82,58,39,30.36,29.91,6,1,19,0.00
2013-10-26,50.7,43.7,35.2,37.8,28.6,24.6,75,56,41,30.06,29.78,10,2,19,0.00
2013-10-27,53.6,40.7,28.7,32.9,27.9,23.7,85,62,37,30.06,29.89,4,0,13,0.00
2013-10-28,43.5,39.3,34.0,32.7,30.6,26.7,83,71,62,30.39,30.02,2,0,11,0.00
2013-10-29,51.6,43.0,34.3,41.0,35.5,28.0,86,75,65,30.38,30.11,1,0,6,0.00
2013-10-30,55.9,49.9,40.8,53.9,47.7,37.4,94,92,86,30.11,29.70,8,1,14,0.00
2013-10-31,60.9,54.8,42.3,59.5,52.8,39.0,95,93,88,29.70,29.23,7,1,13,0.46
2013-11-1,46.5,42.8,37.0,42.4,38.8,33.5,88,86,79,29.74,29.32,3,1,11,0.02
2013-11-2,45.4,38.8,32.4,38.0,33.4,28.2,93,82,65,30.14,29.74,8,0,10,0.01
2013-11-3,49.4,38.4,26.4,37.8,30.5,23.3,94,75,49,30.29,30.14,10,1,10,0.00
2013-11-4,52.8,47.3,40.5,43.2,38.3,34.5,80,71,60,30.18,30.00,8,2,16,0.00
2013-11-5,53.6,50.0,46.4,49.9,45.9,42.5,93,86,73,30.22,29.82,6,1,16,0.31
2013-11-6,54.1,42.0,30.0,52.4,37.1,23.1,94,83,61,30.17,29.67,7,2,13,0.27
2013-11-7,42.8,33.5,27.3,32.3,26.6,22.2,84,76,57,30.24,30.16,4,0,10,0.00
2013-11-8,45.8,36.1,24.1,33.6,27.9,20.5,91,73,58,30.30,29.77,7,2,13,0.00
2013-11-9,53.6,45.7,37.0,40.5,34.3,23.2,78,65,49,30.09,29.74,12,4,21,0.00
2013-11-10,47.9,40.6,33.1,31.2,28.1,24.4,73,61,46,30.32,30.09,8,2,13,0.00
2013-11-11,42.6,32.6,20.0,33.6,24.3,12.4,90,72,63,30.58,30.04,7,1,13,0.07
2013-11-12,30.0,22.3,15.7,17.8,12.8,9.4,77,67,47,30.75,30.58,6,0,12,0.01
2013-11-13,40.2,29.3,17.5,18.8,14.6,10.9,76,56,36,30.58,30.07,16,3,20,0.01
2013-11-14,46.2,38.1,28.8,28.5,23.6,16.9,67,56,46,30.07,29.87,11,2,16,0.00
2013-11-15,53.3,42.1,31.3,35.2,30.6,24.6,82,64,49,29.93,29.85,9,1,10,0.00
2013-11-16,56.5,47.8,37.6,53.4,45.0,32.5,94,90,81,29.85,29.45,8,4,19,0.12
2013-11-17,56.6,49.0,37.2,54.6,45.8,31.4,94,89,77,29.67,29.11,10,3,25,0.87
2013-11-18,39.5,33.3,25.3,31.7,24.6,19.4,81,71,55,30.27,29.67,19,4,24,0.00
2013-11-19,38.9,29.5,19.4,26.9,21.7,15.4,89,73,55,30.37,30.23,7,1,8,0.00
2013-11-20,39.6,35.1,31.8,33.7,28.7,26.3,92,78,62,30.23,30.07,7,2,12,0.09
2013-11-21,40.8,37.9,35.8,38.2,35.3,33.7,94,90,84,30.24,30.08,2,0,10,0.00
2013-11-22,37.5,30.3,21.4,33.7,23.5,14.4,90,76,53,30.49,30.24,8,2,13,0.06
2013-11-23,22.1,17.3,10.9,14.3,5.5,0.0,75,60,45,30.77,30.43,8,2,19,0.00
2013-11-24,26.3,17.4,8.1,7.8,3.2,-1.4,76,55,31,30.73,30.27,10,1,21,0.00
2013-11-25,28.8,25.3,20.3,24.9,18.9,7.4,89,77,50,30.27,30.03,20,3,21,0.04
2013-11-26,30.4,24.5,12.4,25.2,15.4,0.4,85,68,51,30.25,30.02,12,2,17,0.00
2013-11-27,24.5,17.2,7.9,11.1,6.9,0.0,77,64,50,30.32,30.22,10,1,11,0.00
2013-11-28,27.8,23.3,17.3,15.1,12.4,-99.9,70,63,57,30.52,30.15,6,0,9,0.00
2013-11-29,29.1,21.4,8.8,20.6,13.0,3.7,87,70,57,30.64,30.33,3,0,8,0.00
2013-11-30,41.8,31.8,25.0,30.6,24.7,19.3,87,75,62,30.33,30.03,7,0,12,0.00
2013-12-1,39.1,32.0,27.9,27.8,24.5,-99.9,88,75,58,30.15,29.97,1,0,6,0.00
2013-12-2,39.2,31.1,21.6,33.5,26.2,17.5,92,82,71,29.97,29.71,5,0,8,0.06
2013-12-3,38.3,36.1,33.1,37.0,34.6,31.0,95,94,92,29.73,29.64,2,0,5,0.00
2013-12-4,48.5,40.0,32.4,48.5,39.2,30.9,100,97,94,29.72,29.44,8,1,20,0.02
2013-12-5,32.2,21.1,14.1,30.4,13.2,6.3,93,72,60,30.30,29.63,10,3,19,0.00
2013-12-6,16.9,11.1,7.2,6.3,2.0,-1.2,75,67,53,30.59,30.28,7,1,13,0.00
2013-12-7,15.6,7.8,2.2,1.7,-6.5,-99.9,74,61,42,30.74,30.59,5,-30,6,0.00
2013-12-8,20.2,15.4,8.1,17.0,8.5,-2.3,87,74,58,30.64,29.97,1,0,6,0.16
2013-12-9,19.4,7.7,-5.2,15.7,-1.0,-99.9,86,72,60,30.25,29.95,10,-10,19,0.01
2013-12-10,17.3,6.8,-7.9,10.0,-1.0,-14.8,81,70,61,30.28,29.97,11,2,17,0.00
2013-12-11,13.3,6.2,-4.1,9.1,-3.3,-14.1,83,65,47,30.58,30.27,11,1,16,0.01
2013-12-12,15.6,7.5,-5.0,7.8,-1.2,-13.2,76,67,58,30.55,30.20,6,1,13,0.00
2013-12-13,24.4,17.6,10.0,17.4,11.4,3.4,83,76,65,30.22,30.14,2,0,6,0.00
2013-12-14,24.4,20.6,18.0,18.8,16.0,12.7,87,82,78,30.18,29.95,5,1,11,0.04
2013-12-15,19.5,10.8,5.0,14.3,0.4,-99.9,80,64,50,30.17,29.95,6,2,16,0.00
2013-12-16,14.3,7.3,-2.2,10.7,-0.4,-10.5,86,71,55,30.19,30.05,2,0,5,0.13
2013-12-17,33.5,23.3,14.3,24.0,15.2,-99.9,89,74,55,30.09,29.92,11,-9,16,0.00
2013-12-18,33.5,22.6,11.2,25.2,13.7,3.8,81,69,50,30.13,29.77,7,1,14,0.00
2013-12-19,31.5,25.8,21.1,25.9,17.1,-99.9,90,78,72,29.97,29.78,6,-34,7,0.00
2013-12-20,25.1,22.4,21.0,21.9,18.2,-99.9,90,87,87,29.89,29.81,4,-3,6,0.00
2013-12-21,26.7,24.7,22.7,24.2,22.4,20.4,91,91,89,29.89,29.72,5,0,5,0.00
2013-12-22,26.6,24.4,21.0,23.5,20.8,17.3,91,86,77,30.13,29.69,3,1,9,0.43
2013-12-23,21.9,7.2,-5.9,18.6,1.2,-12.6,87,76,67,30.49,30.13,5,1,7,0.00
2013-12-24,10.7,-0.0,-10.7,6.6,-6.4,-17.0,83,74,67,30.61,30.31,2,0,6,0.04
2013-12-25,22.7,18.9,10.7,18.5,14.8,6.6,87,84,80,30.31,30.08,3,1,8,0.02
2013-12-26,27.2,19.8,6.9,21.2,14.7,1.2,86,80,75,30.24,30.11,3,0,6,0.00
2013-12-27,35.3,24.8,10.5,28.2,19.7,5.8,89,81,75,30.26,30.02,5,1,11,0.00
2013-12-28,39.8,33.7,24.4,30.9,27.4,20.0,89,78,68,30.04,29.73,5,1,12,0.00
2013-12-29,37.6,19.4,-3.1,29.5,12.0,-12.6,85,73,63,30.28,29.70,6,2,17,0.00
2013-12-30,2.2,-3.3,-12.0,-5.1,-13.0,-20.5,75,63,48,30.38,30.24,0,0,2,0.04
2013-12-31,7.0,1.3,-7.5,0.9,-5.0,-13.6,78,74,69,30.39,30.24,1,0,3,0.07
2014-1-1,9.9,5.1,0.1,0.6,-3.0,-8.7,74,69,63,30.41,30.33,2,0,6,0.00
2014-1-2,11.1,5.0,-7.5,1.4,-3.5,-14.4,77,67,58,30.49,30.29,3,0,10,0.00